Regional Weather Roundup
Issued by NWS

Home | Current Version | Previous Version | Text Only | Print | Product List | Glossary On
Versions: 1 2 3 4 5 6 7 8 9 10 11 12 13 14 15 16 17 18 19 20 21 22 23 24 25 26 27 28 29 30 31 32 33 34 35 36 37 38 39 40 41 42 43 44 45 46 47 48 49 50
000
ASUS43 KMKX 301621
RWRWI

WISCONSIN REGIONAL WEATHER ROUNDUP
NATIONAL WEATHER SERVICE MILWAUKEE/SULLIVAN WI
1100 AM CDT SAT AUG 30 2014

NOTE: "FAIR" INDICATES FEW OR NO CLOUDS BELOW 12,000 FEET WITH NO
SIGNIFICANT WEATHER AND/OR OBSTRUCTIONS TO VISIBILITY.

WIZ001-002-006>008-014>016-023>028-301700-
NORTHWEST WISCONSIN

CITY           SKY/WX    TMP DP  RH WIND       PRES   REMARKS
SUPERIOR ARPT  CLOUDY    65  61  85 E5        29.86R
ASHLAND        CLOUDY    63  60  90 MISG      29.87R
HAYWARD        CLOUDY    62  60  93 N8        29.85S
SIREN          CLOUDY    65  60  86 NE8       29.86S
RICE LAKE      CLOUDY    64  61  90 N9        29.85S
LADYSMITH      CLOUDY    65  62  93 N7        29.85R
EAU CLAIRE     CLOUDY    71  66  84 N8        29.80R
MENOMONIE      CLOUDY    68  65  92 NW9       29.82R
NEW RICHMOND   CLOUDY    66  62  87 N9        29.85R
OSCEOLA        CLOUDY    65  64  97 N7        29.88R
$$

WIZ003>005-009-010-017-018-301700-
NORTH CENTRAL WISCONSIN

CITY           SKY/WX    TMP DP  RH WIND       PRES   REMARKS
WOODRUFF       RAIN      63  61  93 N8        29.82R
RHINELANDER    LGT RAIN  65  64  97 VRB3      29.81R
EAGLE RIVER    DRIZZLE   64  64 100 N7        29.80R
LAND O LAKES   CLOUDY    63  61  96 N6        29.82S
PHILLIPS       CLOUDY    63  61  94 N5        29.82R
TOMAHAWK       CLOUDY    66  63  89 NW7       29.81R
MEDFORD        CLOUDY    68  65  89 N8        29.81R
MERRILL        CLOUDY    69  65  86 NW7       29.79S
$$

WIZ029-030-035-036-043>047-301700-
CENTRAL WISCONSIN

CITY           SKY/WX    TMP DP  RH WIND       PRES   REMARKS
WAUSAU         CLOUDY    71  64  78 NW8       29.77S
MOSINEE        PTSUNNY   70  66  88 NW8       29.79R
MARSHFIELD     CLOUDY    70  66  87 NW9       29.80R
STEVENS POINT  CLOUDY    67  64  91 CALM      29.80R
WAUPACA        PTSUNNY   73  67  80 W8        29.78R
WAUTOMA        LGT RAIN  75  68  79 W9        29.78S
WISC RAPIDS    LGT RAIN  72  66  81 W7        29.80R
CAMP DOUGLAS   LGT RAIN  68  68 100 NW5       29.80R FOG
$$

WIZ011>013-019>022-031-037>040-048>050-301700-
NORTHEAST WISCONSIN

CITY           SKY/WX    TMP DP  RH WIND       PRES   REMARKS
ANTIGO         CLOUDY    66  64  91 NW9       29.79S
STURGEON BAY   PTSUNNY   73  66  78 S15       29.74F
GREEN BAY      CLOUDY    73  67  81 SW10G20   29.74R
MANITOWOC      CLOUDY    75  71  87 SW8       29.76S
APPLETON       PTSUNNY   72  66  83 SW12      29.77R
CLINTONVILLE   CLOUDY    70  68  94 NW12      29.76R
OSHKOSH        CLOUDY    75  67  76 SW8G18    29.76R
$$

WIZ032>034-041-042-053>061-301700-
SOUTHWEST WISCONSIN

CITY           SKY/WX    TMP DP  RH WIND       PRES   REMARKS
LA CROSSE      CLOUDY    72  67  84 NW9       29.80R
SPARTA         CLOUDY    69  66  92 N7        29.81R
VIROQUA        CLOUDY    68  68 100 NW8       29.82R
BOSCOBEL       CLOUDY    71  67  87 W7        29.81R
PRAIRIE DU CHI CLOUDY    72  67  83 W9        29.81S
PLATTEVILLE    CLOUDY    71  68  93 W12G17    29.84R
$$

WIZ056-057-062-063-064-067-068-301700-
SOUTH CENTRAL WISCONSIN

CITY           SKY/WX    TMP DP  RH WIND       PRES   REMARKS
BARABOO/DELLS  LGT RAIN  71  65  83 NW6       29.79S
LONE ROCK      RAIN      74  68  81 W9        29.80R
WATERTOWN      CLOUDY    75  69  80 S15       29.79S
MADISON        LGT RAIN  70  67  90 SW9       29.80R FOG
MIDDLETON      CLOUDY    70  69  97 SW6       29.81R
MONROE         CLOUDY    70  64  83 SW18G24   29.82R
JANESVILLE     LGT RAIN  72  70  94 SW8       29.81S
$$

WIZ051-052-058>065-066-070>072-301700-
SOUTHEAST WISCONSIN

CITY           SKY/WX    TMP DP  RH WIND       PRES   REMARKS
MILWAUKEE      MOSUNNY   78  66  66 SW14G23   29.80F HX  80
WAUKESHA       PTSUNNY   73  64  73 SW8       29.81F
MILWAUKEE/TIMM PTSUNNY   75  63  64 SW14G23   29.80F
RACINE         PTSUNNY   79  68  69 SW14G24   29.83S HX  81
BURLINGTON     LGT RAIN  71  67  88 SW12      29.81F
KENOSHA        CLOUDY    77  68  73 SW14G22   29.82S
FOND DU LAC    CLOUDY    72  68  87 SW7       29.77S
SHEBOYGAN      PTSUNNY   77  67  71 SW12      29.77S
WEST BEND      CLOUDY    75  64  69 SW12      29.79S
JUNEAU         LGT RAIN  69  66  89 W7        29.81R
$$

LSZ147-162-301700-
LAKE SUPERIOR

STATION/POSITION TIME  TEMP    WIND        PRES    WAVE
                       AIR SEA DIR/SP/G            HT/PER
                 (UTC) (F)     (DEG/KT/KT) (MB)    (FT/S)
W MID LAKE BUOY  1550   59 57  360/  8/ 10 1010.5R   1
DEVILS ISLAND    1600   60      50/  3/  4 1011.1R
PORT WING        1540   63      10/  3/  5 1011.5R
SAXON HARBOR     1500   62      30/  8/ 10 1010.5R
$$

LMZ867-665-643>646-301700-
LAKE MICHIGAN

STATION/POSITION TIME  TEMP    WIND        PRES    WAVE
                       AIR SEA DIR/SP/G            HT/PER
                 (UTC) (F)     (DEG/KT/KT) (MB)    (FT/S)
N MID LAKE BUOY  1550   67 65  200/ 16/ 17 1006.9R   4/ 6
NORTHPORT PIER   1500   69     190/  7/ 11 1006.8F
SISTER BAY       1541   76     250/ 13/ 14   N/A
KEWAUNEE LAKESHO 1600   64     180/ 15/ 16 1006.7S
SHEBOYGAN LAKESH 1600   70 58  180/ 16/ 18 1007.9F
ATWATER BUOY     1600   71     210/ 12/ 16 1010.1F
MILWAUKEE LAKESH 1600   76     230/ 18/ 23   N/A
S MID LAKE BUOY  1550   71 69  190/ 14/ 16 1010.1    2/ 5
KENOSHA   LAKESH 1600   77     210/ 13/ 19 1009.5S
$$

TC  - TEMPERATURE IN CELSIUS
VSB - VISIBILITY IN STATUTE MILES
WCI - WIND CHILL INDEX
HX  - HEAT INDEX




USA.gov is the U.S. government's official web portal to all federal, state and local government web resources and services.